SL-08 RB Rocket - Orbit

View from above orbital plane
View from above orbital plane
View from above satellite
View from above satellite

Ground track
Ground track

The orbit data is extracted from the following two-line orbital elements,

1 26387U 00033D   13142.18299725  .00000475  00000-0  93810-4 0  2079
2 26387 098.1538 208.0737 0027054 011.4229 045.0505 14.66718124689761
Epoch (UTC): 22 May 2013 04:23:30
Eccentricity: 0.0027054
inclination: 98.1538°
perigee height: 652 km
apogee height: 690 km
right ascension of ascending node: 208.0737°
argument of perigee: 11.4229°
revolutions per day: 14.66718124
mean anomaly at epoch: 45.0505°
orbit number at epoch: 68976

The dashed part of the orbit path shows where the satellite is in the earth's shadow,  

Developed and maintained by Chris Peat, Heavens-Above GmbH. Please read the updated FAQ before sending e-mail. Imprint. DLR